TimeWET,TemperatureF,Dew PointF,Humidity,Sea Level PressureIn,VisibilityMPH,Wind Direction,Wind SpeedMPH,Gust SpeedMPH,PrecipitationIn,Events,Conditions,WindDirDegrees,DateUTC
12:00 AM,57,52,79,30.15,6,SSW,5.8,,,,Partly Cloudy,210,2013-02-22 00:00:00
12:00 AM,57.2,51.8,82,30.15,6.2,SSW,5.8,-,N/A,,Scattered Clouds,210,2013-02-22 00:00:00
12:30 AM,57.2,51.8,82,30.15,6.2,SW,5.8,-,N/A,,Scattered Clouds,220,2013-02-22 00:30:00
1:00 AM,55.4,51.8,88,30.12,6.2,SW,4.6,-,N/A,,Scattered Clouds,230,2013-02-22 01:00:00
1:30 AM,55.4,51.8,88,30.12,6.2,WSW,1.2,-,N/A,,Scattered Clouds,240,2013-02-22 01:30:00
2:00 AM,55.4,51.8,88,30.09,6.2,WSW,2.3,-,N/A,,Scattered Clouds,240,2013-02-22 02:00:00
2:30 AM,51.8,50.0,94,30.09,6.2,WSW,2.3,-,N/A,,Scattered Clouds,240,2013-02-22 02:30:00
3:00 AM,51,51,98,30.10,6,Calm,Calm,,,,Partly Cloudy,,2013-02-22 03:00:00
3:00 AM,51.8,50.0,94,30.09,6.2,SW,1.2,-,N/A,,Scattered Clouds,230,2013-02-22 03:00:00
3:30 AM,51.8,51.8,100,30.09,6.2,Calm,Calm,-,N/A,,Scattered Clouds,0,2013-02-22 03:30:00
4:00 AM,50.0,50.0,100,30.06,6.2,Calm,Calm,-,N/A,,Scattered Clouds,0,2013-02-22 04:00:00
4:30 AM,50.0,50.0,100,30.09,6.2,Calm,Calm,-,N/A,,Scattered Clouds,0,2013-02-22 04:30:00
5:00 AM,51.8,50.0,94,30.09,6.2,South,3.5,-,N/A,,Scattered Clouds,180,2013-02-22 05:00:00
5:30 AM,53.6,51.8,94,30.09,6.2,South,4.6,-,N/A,,Scattered Clouds,180,2013-02-22 05:30:00
5:46 AM,53,51,91,30.11,6,South,4.6,,,,Mostly Cloudy,170,2013-02-22 05:46:00
6:00 AM,53.6,51.8,94,30.09,6.2,South,4.6,-,N/A,,Scattered Clouds,170,2013-02-22 06:00:00
6:30 AM,53.6,51.8,94,30.09,6.2,South,4.6,-,N/A,,Scattered Clouds,170,2013-02-22 06:30:00
7:00 AM,53.6,51.8,94,30.09,6.2,South,3.5,-,N/A,,Mostly Cloudy,170,2013-02-22 07:00:00
7:30 AM,51.8,50.0,94,30.09,6.2,Calm,Calm,-,N/A,,Scattered Clouds,0,2013-02-22 07:30:00
8:00 AM,57.2,51.8,82,30.09,6.2,SSE,3.5,-,N/A,,Scattered Clouds,150,2013-02-22 08:00:00
8:30 AM,60.8,51.8,72,30.09,6.2,Calm,Calm,-,N/A,,Scattered Clouds,0,2013-02-22 08:30:00
9:00 AM,63,53,61,30.08,6,Calm,Calm,,,,Scattered Clouds,,2013-02-22 09:00:00
9:00 AM,62.6,51.8,68,30.09,6.2,Calm,Calm,-,N/A,,Scattered Clouds,0,2013-02-22 09:00:00
9:30 AM,64.4,51.8,64,30.09,6.2,Variable,2.3,-,N/A,,Scattered Clouds,0,2013-02-22 09:30:00
10:00 AM,66.2,50.0,56,30.12,6.2,WNW,3.5,-,N/A,,Scattered Clouds,290,2013-02-22 10:00:00
10:30 AM,64.4,50.0,59,30.12,6.2,SSW,3.5,-,N/A,,Scattered Clouds,210,2013-02-22 10:30:00
11:00 AM,66.2,50.0,56,30.12,6.2,West,6.9,-,N/A,,Scattered Clouds,260,2013-02-22 11:00:00
11:30 AM,66.2,51.8,60,30.12,6.2,WNW,9.2,-,N/A,,Scattered Clouds,290,2013-02-22 11:30:00
12:00 PM,66,49,44,30.07,6,West,8.1,,,,Partly Cloudy,280,2013-02-22 12:00:00
12:00 PM,66.2,51.8,60,30.09,6.2,West,6.9,-,N/A,,Scattered Clouds,280,2013-02-22 12:00:00
12:30 PM,66.2,50.0,56,30.09,6.2,West,11.5,-,N/A,,Scattered Clouds,280,2013-02-22 12:30:00
1:00 PM,69.8,48.2,46,30.09,6.2,West,11.5,-,N/A,,Mostly Cloudy,280,2013-02-22 13:00:00
1:30 PM,68.0,48.2,49,30.06,6.2,WSW,12.7,-,N/A,,Mostly Cloudy,250,2013-02-22 13:30:00
2:00 PM,69.8,48.2,46,30.06,6.2,WSW,12.7,-,N/A,,Mostly Cloudy,250,2013-02-22 14:00:00
2:30 PM,69.8,48.2,46,30.06,6.2,West,11.5,-,N/A,,Mostly Cloudy,260,2013-02-22 14:30:00
3:00 PM,72,48,31,29.99,6,West,8.1,,,,Mostly Cloudy,270,2013-02-22 15:00:00
3:00 PM,71.6,46.4,41,30.04,6.2,West,10.4,-,N/A,,Mostly Cloudy,260,2013-02-22 15:00:00
3:30 PM,71.6,46.4,41,30.04,-9999.0,WSW,11.5,-,N/A,,Unknown,250,2013-02-22 15:30:00
4:00 PM,71.6,44.6,38,30.04,6.2,WSW,12.7,-,N/A,,Scattered Clouds,250,2013-02-22 16:00:00
4:30 PM,69.8,50.0,49,30.04,6.2,West,11.5,-,N/A,,Scattered Clouds,270,2013-02-22 16:30:00
5:00 PM,68.0,50.0,52,30.04,6.2,WNW,17.3,-,N/A,,Scattered Clouds,290,2013-02-22 17:00:00
5:30 PM,64.4,48.2,56,30.04,6.2,WNW,17.3,-,N/A,,Scattered Clouds,290,2013-02-22 17:30:00
6:00 PM,65,49,47,30.02,6,WNW,16.1,,,,Partly Cloudy,290,2013-02-22 18:00:00
6:00 PM,64.4,50.0,59,30.06,6.2,WNW,15.0,-,N/A,,Scattered Clouds,290,2013-02-22 18:00:00
6:30 PM,62.6,48.2,59,30.06,6.2,WNW,11.5,-,N/A,,Scattered Clouds,290,2013-02-22 18:30:00
7:00 PM,60.8,48.2,63,30.06,6.2,West,10.4,-,N/A,,Partly Cloudy,280,2013-02-22 19:00:00
7:30 PM,59.0,50.0,72,30.06,6.2,West,9.2,-,N/A,,Partly Cloudy,270,2013-02-22 19:30:00
8:00 PM,59.0,50.0,72,30.06,6.2,West,8.1,-,N/A,,Partly Cloudy,260,2013-02-22 20:00:00
8:30 PM,57.2,50.0,77,30.06,6.2,West,10.4,-,N/A,,Partly Cloudy,270,2013-02-22 20:30:00
9:00 PM,57,49,68,30.09,6,WSW,8.1,,,,Partly Cloudy,240,2013-02-22 21:00:00
9:00 PM,57.2,50.0,77,30.09,6.2,WSW,9.2,-,N/A,,Scattered Clouds,240,2013-02-22 21:00:00
9:30 PM,55.4,50.0,82,30.09,6.2,WSW,5.8,-,N/A,,Scattered Clouds,240,2013-02-22 21:30:00
10:00 PM,55.4,50.0,82,30.09,6.2,SW,5.8,-,N/A,,Scattered Clouds,220,2013-02-22 22:00:00
10:30 PM,55.4,50.0,82,30.09,6.2,SW,5.8,-,N/A,,Scattered Clouds,230,2013-02-22 22:30:00
11:00 PM,55.4,50.0,82,30.09,6.2,SSW,5.8,-,N/A,,Scattered Clouds,210,2013-02-22 23:00:00
11:30 PM,57.2,48.2,72,30.09,6.2,SSW,6.9,-,N/A,,Scattered Clouds,210,2013-02-22 23:30:00